Terminal Aerodrome Forecast
Issued by NWS Missoula, MT

Home | Current Version | Previous Version | Text Only | Print | Product List | Glossary On
Versions: 1 2 3 4 5 6 7 8 9 10 11 12 13 14 15 16 17 18
000
FTUS45 KMSO 300520
TAFMSO
TAF
KMSO 300520Z 3006/3106 VRB04KT P6SM BKN100
     FM301800 20008KT P6SM FEW200
     FM302000 29010G16KT P6SM SCT200
     FM310300 VRB04KT P6SM FEW200=

USA.gov is the U.S. government's official web portal to all federal, state and local government web resources and services.